TimeEDT,TemperatureF,Dew PointF,Humidity,Sea Level PressureIn,VisibilityMPH,Wind Direction,Wind SpeedMPH,Gust SpeedMPH,PrecipitationIn,Events,Conditions,WindDirDegrees,DateUTC
12:53 AM,71.1,69.1,93,30.05,10.0,Calm,Calm,-,N/A,,Clear,0,2013-06-27 04:53:00
1:53 AM,71.1,69.1,93,30.03,10.0,Calm,Calm,-,N/A,,Clear,0,2013-06-27 05:53:00
2:53 AM,71.1,69.1,93,30.02,10.0,Calm,Calm,-,N/A,,Clear,0,2013-06-27 06:53:00
3:53 AM,70.0,68.0,93,30.02,10.0,Calm,Calm,-,0.01,,Clear,0,2013-06-27 07:53:00
4:53 AM,70.0,68.0,93,30.01,10.0,Calm,Calm,-,N/A,,Clear,0,2013-06-27 08:53:00
5:53 AM,70.0,68.0,93,30.02,10.0,Calm,Calm,-,N/A,,Clear,0,2013-06-27 09:53:00
6:53 AM,69.1,66.9,93,30.03,10.0,Calm,Calm,-,N/A,,Clear,0,2013-06-27 10:53:00
7:53 AM,73.9,70.0,87,30.03,10.0,Calm,Calm,-,N/A,,Clear,0,2013-06-27 11:53:00
8:53 AM,79.0,72.0,79,30.04,10.0,West,3.5,-,N/A,,Clear,260,2013-06-27 12:53:00
9:53 AM,82.9,75.0,77,30.04,10.0,Variable,4.6,-,N/A,,Clear,0,2013-06-27 13:53:00
10:41 AM,84.2,75.2,74,30.04,10.0,NNW,6.9,-,N/A,,Mostly Cloudy,330,2013-06-27 14:41:00
10:53 AM,86.0,75.0,70,30.03,10.0,NW,8.1,-,N/A,,Mostly Cloudy,310,2013-06-27 14:53:00
11:53 AM,82.0,73.9,76,30.02,10.0,Calm,Calm,-,0.04,Rain,Light Rain,0,2013-06-27 15:53:00
12:53 PM,89.1,73.9,61,30.01,10.0,West,8.1,-,0.00,,Scattered Clouds,280,2013-06-27 16:53:00
1:53 PM,82.9,73.0,72,30.00,4.0,Variable,5.8,-,0.01,Rain,Heavy Rain,0,2013-06-27 17:53:00
2:53 PM,82.9,75.0,77,29.99,10.0,SSW,6.9,-,0.01,,Partly Cloudy,210,2013-06-27 18:53:00
3:53 PM,82.9,73.0,72,29.97,10.0,SSW,6.9,-,N/A,,Clear,210,2013-06-27 19:53:00
4:53 PM,84.9,73.9,69,29.95,10.0,SSW,5.8,-,N/A,,Clear,200,2013-06-27 20:53:00
5:53 PM,87.1,73.0,63,29.94,10.0,SSW,6.9,-,N/A,,Clear,210,2013-06-27 21:53:00
6:53 PM,86.0,75.0,70,29.93,10.0,SW,5.8,-,N/A,,Clear,220,2013-06-27 22:53:00
7:53 PM,84.0,75.0,74,29.93,10.0,SSW,8.1,-,N/A,,Clear,210,2013-06-27 23:53:00
8:53 PM,82.0,75.0,79,29.93,10.0,SSW,6.9,-,N/A,,Clear,200,2013-06-28 00:53:00
9:53 PM,81.0,75.0,82,29.94,10.0,WSW,5.8,-,N/A,,Clear,240,2013-06-28 01:53:00
10:53 PM,80.1,75.0,85,29.95,10.0,SW,4.6,-,N/A,,Clear,220,2013-06-28 02:53:00
11:53 PM,79.0,73.9,84,29.96,10.0,Calm,Calm,-,N/A,,Clear,0,2013-06-28 03:53:00